FW0538 Weather Reports


Display with metric or nautical units.
time (UTC)temp
F
wind
direction
speed
MPH
gust
MPH
rain 1hr
in
rain 24hr
in
rain mn
in
humidity
%
barometer
mb
20260509003028 76 328 8.0 16.0 0.00 0.00 0.00 22 1011.8
20260509001527 76 305 8.0 16.0 0.00 0.00 0.00 21 1011.8
20260509000026 76 316 9.0 16.0 0.00 0.00 0.00 22 1011.6
20260508234526 75 331 10.0 18.0 0.00 0.00 0.00 20 1011.7
20260508233026 76 311 9.0 19.0 0.00 0.00 0.00 22 1011.7
20260508231524 76 328 10.0 20.0 0.00 0.00 0.00 20 1011.7
20260508230022 76 316 11.0 19.0 0.00 0.00 0.00 23 1011.9
20260508224527 75 356 12.0 20.0 0.00 0.00 0.00 23 1012.3
20260508223034 76 33 7.0 24.0 0.00 0.00 0.00 22 1012.3
20260508221518 76 20 6.0 19.0 0.00 0.00 0.00 20 1012.3
20260508220022 76 345 6.0 16.0 0.00 0.00 0.00 22 1012.5
20260508214516 75 32 5.0 18.0 0.00 0.00 0.00 21 1012.6
20260508213014 75 350 5.0 15.0 0.00 0.00 0.00 21 1012.8
20260508211512 76 317 8.0 18.0 0.00 0.00 0.00 21 1012.9
20260508210010 75 34 5.0 16.0 0.00 0.00 0.00 22 1012.9
20260508204513 75 28 2.0 10.0 0.00 0.00 0.00 24 1013.1
20260508203008 74 314 1.0 12.0 0.00 0.00 0.00 23 1013.2
20260508201508 73 326 4.0 11.0 0.00 0.00 0.00 22 1013.3
20260508200006 74 280 7.0 14.0 0.00 0.00 0.00 21 1013.4
20260508194505 73 236 1.0 6.0 0.00 0.00 0.00 21 1013.6
20260508193003 73 150 0.0 4.0 0.00 0.00 0.00 22 1013.6
20260508191501 70 167 3.0 6.0 0.00 0.00 0.00 23 1013.7
20260508190100 71 70 1.0 4.0 0.00 0.00 0.00 22 1014.1
20260508184600 70 72 3.0 6.0 0.00 0.00 0.00 23 1014.3
20260508183107 70 360 1.0 7.0 0.00 0.00 0.00 23 1014.5
20260508181556 69 68 0.0 5.0 0.00 0.00 0.00 24 1014.5
20260508180110 68 41 1.0 4.0 0.00 0.00 0.00 23 1014.7
20260508174602 68 310 0.0 4.0 0.00 0.00 0.00 24 1014.7
20260508173051 68 334 1.0 6.0 0.00 0.00 0.00 25 1014.8
20260508171550 67 155 0.0 2.0 0.00 0.00 0.00 26 1014.9
20260508170048 66 30 0.0 4.0 0.00 0.00 0.00 24 1015.0
20260508164545 65 353 0.0 5.0 0.00 0.00 0.00 30 1014.9
20260508163040 63 37 0.0 3.0 0.00 0.00 0.00 31 1014.9
20260508161537 62 78 0.0 3.0 0.00 0.00 0.00 33 1015.0
20260508160037 62 342 0.0 2.0 0.00 0.00 0.00 37 1015.1
20260508154531 60 335 0.0 3.0 0.00 0.00 0.00 39 1015.0
20260508153033 58 272 0.0 5.0 0.00 0.00 0.00 39 1015.1
20260508151526 58 7 0.0 2.0 0.00 0.00 0.00 38 1015.1
20260508150026 56 353 0.0 2.0 0.00 0.00 0.00 47 1015.1
20260508144524 56 15 0.0 0.0 0.00 0.00 0.00 48 1015.0
20260508143023 55 15 0.0 0.0 0.00 0.00 0.00 43 1015.0
20260508141522 52 15 0.0 1.0 0.00 0.00 0.00 49 1015.0
20260508140021 50 15 0.0 0.0 0.00 0.00 0.00 53 1014.7
20260508134621 48 15 0.0 1.0 0.00 0.00 0.00 54 1014.7
20260508133020 50 269 0.0 0.0 0.00 0.00 0.00 45 1014.5
20260508131517 51 269 0.0 2.0 0.00 0.00 0.00 44 1014.3
20260508130020 48 294 1.0 3.0 0.00 0.00 0.00 55 1014.3
20260508124512 46 321 0.0 2.0 0.00 0.00 0.00 59 1014.1
20260508123012 46 27 1.0 5.0 0.00 0.00 0.00 61 1014.0
20260508121510 47 30 0.0 3.0 0.00 0.00 0.00 60 1013.9
20260508120022 47 6 2.0 4.0 0.00 0.00 0.00 60 1013.9
20260508114509 47 30 0.0 4.0 0.00 0.00 0.00 59 1014.0
20260508113012 47 24 0.0 3.0 0.00 0.00 0.00 60 1013.9
20260508111507 46 354 0.0 5.0 0.00 0.00 0.00 62 1013.9
20260508110002 47 32 1.0 4.0 0.00 0.00 0.00 61 1013.8
20260508104601 50 15 0.0 1.0 0.00 0.00 0.00 57 1013.9
20260508103057 50 25 1.0 3.0 0.00 0.00 0.00 57 1013.9
20260508101556 49 22 0.0 2.0 0.00 0.00 0.00 60 1013.7
20260508100052 51 27 0.0 3.0 0.00 0.00 0.00 56 1013.6
20260508094555 51 24 1.0 3.0 0.00 0.00 0.00 57 1013.6
20260508093050 52 25 2.0 4.0 0.00 0.00 0.00 55 1013.5
20260508091556 53 20 3.0 5.0 0.00 0.00 0.00 53 1013.4
20260508090044 54 30 2.0 4.0 0.00 0.00 0.00 50 1013.3
20260508084542 54 32 1.0 4.0 0.00 0.00 0.00 46 1013.3
20260508083048 53 351 0.0 1.0 0.00 0.00 0.00 49 1013.4
20260508081545 55 15 2.0 4.0 0.00 0.00 0.00 45 1013.6
20260508080033 55 26 1.0 3.0 0.00 0.00 0.00 41 1013.7
20260508074532 56 21 1.0 3.0 0.00 0.00 0.00 40 1013.7
20260508073031 55 285 0.0 2.0 0.00 0.00 0.00 41 1013.8
20260508071527 56 22 1.0 4.0 0.00 0.00 0.00 40 1013.6
20260508070023 58 17 0.0 4.0 0.00 0.00 0.00 38 1013.7
20260508064527 58 96 0.0 1.0 0.00 0.00 0.00 40 1013.7
20260508063022 59 96 0.0 3.0 0.00 0.00 0.00 40 1013.9
20260508061523 58 97 0.0 0.0 0.00 0.00 0.00 40 1013.7
20260508060021 58 321 0.0 1.0 0.00 0.00 0.00 42 1013.5
20260508054520 60 321 0.0 0.0 0.00 0.00 0.00 39 1013.3
20260508053020 60 320 1.0 5.0 0.00 0.00 0.00 38 1013.4
20260508051529 61 353 1.0 3.0 0.00 0.00 0.00 38 1013.3
20260508050019 62 313 1.0 8.0 0.00 0.00 0.00 36 1013.2
20260508044519 61 293 2.0 10.0 0.00 0.00 0.00 35 1013.4
20260508043021 61 325 1.0 3.0 0.00 0.00 0.00 35 1013.1
20260508041517 63 293 2.0 8.0 0.00 0.00 0.00 33 1012.9
20260508040016 63 290 4.0 14.0 0.00 0.00 0.00 37 1012.7
20260508034517 61 342 3.0 12.0 0.00 0.00 0.00 46 1012.5
20260508033016 62 330 1.0 7.0 0.00 0.00 0.00 48 1012.4
20260508031514 63 323 1.0 6.0 0.00 0.00 0.00 47 1012.3
20260508030016 65 272 4.0 8.0 0.00 0.00 0.00 46 1012.1
20260508024513 66 260 4.0 6.0 0.00 0.00 0.00 43 1011.9
20260508023012 68 314 5.0 13.0 0.00 0.00 0.00 39 1011.8
20260508021510 69 285 6.0 14.0 0.00 0.00 0.00 39 1011.5
20260508020013 70 335 8.0 15.0 0.00 0.00 0.00 41 1011.3
20260508014511 71 307 6.0 16.0 0.00 0.00 0.00 41 1011.1
20260508013010 71 314 10.0 19.0 0.00 0.00 0.00 39 1011.0
20260508011507 71 312 11.0 20.0 0.00 0.00 0.00 39 1011.0
20260508010007 72 327 11.0 18.0 0.00 0.00 0.00 36 1010.9